Crosby, ND

9:11 PM CST on December 13, 2019 (GMT -0600)
Crosby

Weather History for KD50 - August, 2019

Change the Weather History Date:

Monday, August 26, 2019

  Actual Average (KISN) Record (KISN)
Temperature  
Mean Temperature 62 °F -  
Max Temperature 71 °F 80 °F 99 °F (1901)
Min Temperature 53 °F 52 °F 33 °F (1914)
Degree Days  
Heating Degree Days 3    
Growing Degree Days 12 (Base 50)    
Moisture  
Dew Point 48 °F    
Average Humidity 66    
Maximum Humidity 100    
Minimum Humidity 30    
Precipitation  
Precipitation 0.00 in - - ()
Sea Level Pressure  
Sea Level Pressure 29.86 in    
Wind  
Wind Speed 12 mph (WNW)    
Max Wind Speed 30 mph    
Max Gust Speed 33 mph    
Visibility 10 miles    
Events      
Averages and records for this station are not official NWS values.
T = Trace of Precipitation, MM = Missing Value Source: NWS Daily Summary

Daily Weather History Graph

Daily Weather History Graph

Search for Another Location

Airport or City:

Astronomy

Aug. 26, 2019 Rise Set
Actual Time 7:01 AM CDT 8:47 PM CDT
Civil Twilight 6:27 AM CDT 9:21 PM CDT
Nautical Twilight 5:46 AM CDT 10:02 PM CDT
Astronomical Twilight 5:00 AM CDT 10:47 PM CDT
Moon 2:09 AM CDT (8/26) 6:33 PM CDT (8/26)
Length of Visible Light 14h 53m
Length of Day
13h 46m
Waning Crescent, 19% of the Moon is Illuminated
Aug 26
Waning Crescent
Aug 30
New
Sep 5
First Quarter
Sep 13
Full
Sep 21
Last Quarter

Hourly Weather History & Observations

Time (CDT) Temp. Dew Point Humidity Pressure Visibility Wind Dir Wind Speed Gust Speed Precip Events Conditions
12:15 AM 57.2 °F 57.2 °F 100% 29.81 in 10.0 mi West 6.9 mph - N/A   Overcast
12:35 AM 57.2 °F 57.2 °F 100% 29.82 in 10.0 mi West 6.9 mph - N/A   Overcast
12:55 AM 57.2 °F 57.2 °F 100% 29.82 in 10.0 mi West 10.4 mph - N/A   Mostly Cloudy
1:15 AM 55.4 °F 55.4 °F 100% 29.81 in 10.0 mi West 8.1 mph - N/A   Partly Cloudy
1:35 AM 55.4 °F 55.4 °F 100% 29.82 in 10.0 mi WNW 9.2 mph - N/A   Partly Cloudy
1:55 AM 55.4 °F 55.4 °F 100% 29.82 in 10.0 mi West 10.4 mph - N/A   Clear
2:15 AM 55.4 °F 55.4 °F 100% 29.82 in 10.0 mi West 8.1 mph - N/A   Partly Cloudy
2:35 AM 55.4 °F 55.4 °F 100% 29.82 in 10.0 mi WNW 8.1 mph - N/A   Clear
2:55 AM 55.4 °F 55.4 °F 100% 29.82 in 10.0 mi WNW 8.1 mph - N/A   Clear
3:15 AM 53.6 °F 53.6 °F 100% 29.83 in 10.0 mi West 8.1 mph - N/A   Scattered Clouds
3:55 AM 55.4 °F 55.4 °F 100% 29.83 in 10.0 mi WNW 9.2 mph - N/A   Overcast
4:15 AM 55.4 °F 55.4 °F 100% 29.83 in 10.0 mi WNW 10.4 mph - N/A   Overcast
4:35 AM 53.6 °F 53.6 °F 100% 29.83 in 10.0 mi WNW 10.4 mph - N/A   Scattered Clouds
4:55 AM 53.6 °F 53.6 °F 100% 29.83 in 10.0 mi WNW 10.4 mph - N/A   Scattered Clouds
5:15 AM 53.6 °F 53.6 °F 100% 29.83 in 10.0 mi West 10.4 mph - N/A   Scattered Clouds
5:35 AM 53.6 °F 53.6 °F 100% 29.84 in 10.0 mi West 9.2 mph - N/A   Clear
5:55 AM 53.6 °F 53.6 °F 100% 29.84 in 10.0 mi West 10.4 mph - N/A   Clear
6:15 AM 53.6 °F 53.6 °F 100% 29.84 in 10.0 mi West 10.4 mph - N/A   Clear
6:35 AM 53.6 °F 53.6 °F 100% 29.84 in 10.0 mi West 9.2 mph - N/A   Scattered Clouds
6:55 AM 53.6 °F 53.6 °F 100% 29.84 in 10.0 mi West 6.9 mph - N/A   Partly Cloudy
7:15 AM 53.6 °F 53.6 °F 100% 29.85 in 10.0 mi West 5.8 mph - N/A   Mostly Cloudy
7:35 AM 53.6 °F 53.6 °F 100% 29.85 in 10.0 mi WNW 6.9 mph - N/A   Mostly Cloudy
8:15 AM 57.2 °F 55.4 °F 94% 29.85 in 10.0 mi WNW 10.4 mph - N/A   Clear
8:35 AM 59.0 °F 53.6 °F 82% 29.86 in 10.0 mi WNW 11.5 mph - N/A   Clear
9:15 AM 62.6 °F 50.0 °F 63% 29.87 in 10.0 mi NW 16.1 mph 21.9 mph N/A   Clear
9:35 AM 62.6 °F 50.0 °F 63% 29.87 in 10.0 mi NW 15.0 mph 20.7 mph N/A   Clear
9:55 AM 60.8 °F 50.0 °F 68% 29.87 in 10.0 mi NW 10.4 mph 16.1 mph N/A   Clear
10:15 AM 62.6 °F 50.0 °F 63% 29.88 in 10.0 mi WNW 16.1 mph - N/A   Clear
10:35 AM 64.4 °F 50.0 °F 59% 29.88 in 10.0 mi WNW 18.4 mph - N/A   Clear
10:55 AM 66.2 °F 50.0 °F 56% 29.87 in 10.0 mi NW 16.1 mph 21.9 mph N/A   Clear
11:15 AM 68.0 °F 48.2 °F 49% 29.87 in 10.0 mi NW 17.3 mph 23.0 mph N/A   Clear
11:35 AM 68.0 °F 48.2 °F 49% 29.87 in 10.0 mi NW 18.4 mph 29.9 mph N/A   Clear
11:55 AM 69.8 °F 48.2 °F 46% 29.88 in 10.0 mi NW 18.4 mph 25.3 mph N/A   Clear
12:15 PM 69.8 °F 48.2 °F 46% 29.87 in 10.0 mi NW 17.3 mph 23.0 mph N/A   Clear
12:35 PM 69.8 °F 48.2 °F 46% 29.87 in 10.0 mi NW 19.6 mph 26.5 mph N/A   Partly Cloudy
12:55 PM 69.8 °F 48.2 °F 46% 29.87 in 10.0 mi NW 19.6 mph - N/A   Scattered Clouds
1:15 PM 69.8 °F 48.2 °F 46% 29.87 in 10.0 mi NW 18.4 mph 25.3 mph N/A   Mostly Cloudy
1:35 PM 69.8 °F 48.2 °F 46% 29.87 in 10.0 mi NW 24.2 mph - N/A   Mostly Cloudy
1:55 PM 69.8 °F 48.2 °F 46% 29.87 in 10.0 mi WNW 23.0 mph - N/A   Scattered Clouds
2:15 PM 68.0 °F 46.4 °F 46% 29.86 in 10.0 mi NW 20.7 mph - N/A   Mostly Cloudy
2:35 PM 69.8 °F 48.2 °F 46% 29.86 in 10.0 mi NW 20.7 mph 29.9 mph N/A   Mostly Cloudy
2:55 PM 71.6 °F 44.6 °F 38% 29.86 in 10.0 mi NW 16.1 mph 28.8 mph N/A   Mostly Cloudy
3:15 PM 71.6 °F 44.6 °F 38% 29.85 in 10.0 mi NW 18.4 mph 27.6 mph N/A   Mostly Cloudy
3:35 PM 69.8 °F 44.6 °F 40% 29.85 in 10.0 mi WNW 19.6 mph 28.8 mph N/A   Partly Cloudy
3:55 PM 68.0 °F 44.6 °F 43% 29.85 in 10.0 mi WNW 20.7 mph 29.9 mph N/A   Mostly Cloudy
4:15 PM 66.2 °F 46.4 °F 49% 29.85 in 10.0 mi WNW 20.7 mph 32.2 mph N/A   Scattered Clouds
4:35 PM 64.4 °F 46.4 °F 52% 29.86 in 10.0 mi WNW 19.6 mph 26.5 mph N/A   Partly Cloudy
4:55 PM 69.8 °F 44.6 °F 40% 29.85 in 10.0 mi WNW 20.7 mph 29.9 mph N/A   Scattered Clouds
5:15 PM 68.0 °F 44.6 °F 43% 29.85 in 10.0 mi NW 19.6 mph 27.6 mph N/A   Mostly Cloudy
5:35 PM 69.8 °F 46.4 °F 43% 29.85 in 10.0 mi NW 19.6 mph 31.1 mph N/A   Mostly Cloudy
5:55 PM 69.8 °F 44.6 °F 40% 29.85 in 10.0 mi NW 19.6 mph 25.3 mph N/A   Mostly Cloudy
6:15 PM 69.8 °F 41.0 °F 35% 29.85 in 10.0 mi NW 29.9 mph - N/A   Mostly Cloudy
6:35 PM 69.8 °F 39.2 °F 33% 29.85 in 10.0 mi WNW 23.0 mph 29.9 mph N/A   Scattered Clouds
6:55 PM 69.8 °F 37.4 °F 31% 29.86 in 10.0 mi WNW 18.4 mph 29.9 mph N/A   Partly Cloudy
7:15 PM 68.0 °F 35.6 °F 30% 29.86 in 10.0 mi WNW 19.6 mph 31.1 mph N/A   Scattered Clouds
7:35 PM 68.0 °F 37.4 °F 33% 29.87 in 10.0 mi NW 21.9 mph 33.4 mph N/A   Partly Cloudy
7:55 PM 66.2 °F 37.4 °F 35% 29.87 in 10.0 mi WNW 16.1 mph 27.6 mph N/A   Clear
8:15 PM 64.4 °F 39.2 °F 40% 29.88 in 10.0 mi NW 12.7 mph 20.7 mph N/A   Clear
8:35 PM 62.6 °F 39.2 °F 42% 29.88 in 10.0 mi NW 12.7 mph - N/A   Clear
8:55 PM 62.6 °F 39.2 °F 42% 29.88 in 10.0 mi WNW 12.7 mph - N/A   Clear
9:15 PM 60.8 °F 39.2 °F 45% 29.89 in 10.0 mi WNW 10.4 mph - N/A   Clear
9:35 PM 59.0 °F 39.2 °F 48% 29.89 in 10.0 mi WNW 9.2 mph - N/A   Clear
9:55 PM 57.2 °F 41.0 °F 55% 29.90 in 10.0 mi West 8.1 mph - N/A   Clear
10:15 PM 57.2 °F 41.0 °F 55% 29.90 in 10.0 mi WNW 11.5 mph - N/A   Partly Cloudy
10:35 PM 57.2 °F 41.0 °F 55% 29.90 in 10.0 mi West 10.4 mph - N/A   Scattered Clouds
10:55 PM 55.4 °F 42.8 °F 63% 29.90 in 10.0 mi West 11.5 mph - N/A   Partly Cloudy
11:15 PM 55.4 °F 42.8 °F 63% 29.90 in 10.0 mi West 11.5 mph - N/A   Clear
11:35 PM 55.4 °F 42.8 °F 63% 29.90 in 10.0 mi West 11.5 mph - N/A   Clear
11:55 PM 53.6 °F 42.8 °F 67% 29.90 in 10.0 mi West 11.5 mph - N/A   Clear